Simultaneous Nadir Overpasses (SNOs) Predictions

Prediction of SNOs between NOAA-19 and TERRA Satellite Orbit:

Table of predicted SNOs for the next 14.0 days since TLE Epoch: 3/16/2017
Index Date (NOAA-19) Time (NOAA-19) Lat,Lon (NOAA-19) SZA (NOAA-19 ) Date (TERRA) Time (TERRA) Lat,Lon (TERRA) SZA (TERRA ) Distance(km) Time Diff (sec)
1 03/18/2017 03:12:03 -75.50, -39.12 103.57 03/18/2017 03:13:12 -75.39, -37.31 103.61 52.40 69
2 03/18/2017 04:03:01 75.08, 129.44 76.05 03/18/2017 04:02:44 75.06, 129.45 76.02 2.62 17
3 03/20/2017 08:45:54 75.15, 58.57 75.25 03/20/2017 08:47:00 75.15, 58.61 75.25 1.12 66
4 03/20/2017 09:36:47 -75.08,-133.92 104.84 03/20/2017 09:36:29 -75.08,-133.94 104.84 0.53 18
5 03/22/2017 14:19:40 -75.14, 155.22 105.64 03/22/2017 14:20:45 -75.16, 155.21 105.61 2.27 65
6 03/22/2017 15:10:46 75.10, -37.43 74.32 03/22/2017 15:10:12 75.08, -37.36 74.30 2.71 34
7 03/24/2017 19:53:39 75.18,-108.32 73.53 03/24/2017 19:54:28 75.16,-108.22 73.53 3.45 49
8 03/24/2017 20:44:32 -75.09, 59.23 106.57 03/24/2017 20:43:57 -75.10, 59.25 106.56 1.26 35
9 03/27/2017 01:27:25 -75.16, -11.64 107.36 03/27/2017 01:28:13 -75.17, -11.62 107.33 1.95 48
10 03/27/2017 02:18:30 75.09, 155.79 72.58 03/27/2017 02:17:40 75.09, 155.80 72.56 0.15 50
11 03/29/2017 07:01:23 75.18, 84.86 71.80 03/29/2017 07:01:56 75.16, 84.92 71.79 2.43 33
